This is the latest recevied weather packets stored in our database for station/object KK6LVQ-13. If no packets are shown the sender has not sent any weather packets the latest 10 day(s).
| Time | Temp. | Humidity | Pressure | Rain* | Wind** | Luminosity | Snow |
|---|---|---|---|---|---|---|---|
| 1777678931 | 22.22° C | 64% | 1017 hPa | 0 mm | - | 421 W/m² | - |
| 1777678629 | 22.78° C | 64% | 1017.2 hPa | 0 mm | - | 429 W/m² | - |
| 1777678326 | 22.22° C | 63% | 1017.2 hPa | 0 mm | - | 473 W/m² | - |
| 1777678022 | 22.78° C | 63% | 1017.1 hPa | 0 mm | - | 469 W/m² | - |
| 1777677720 | 22.78° C | 63% | 1017.1 hPa | 0 mm | - | 506 W/m² | - |
| 1777677417 | 22.78° C | 64% | 1017 hPa | 0 mm | - | 372 W/m² | - |
| 1777677115 | 23.33° C | 62% | 1017 hPa | 0 mm | - | 549 W/m² | - |
| 1777676813 | 23.89° C | 62% | 1017.1 hPa | 0 mm | - | 532 W/m² | - |
| 1777676511 | 23.33° C | 61% | 1017.1 hPa | 0 mm | - | 571 W/m² | - |
| 1777676209 | 23.33° C | 61% | 1017.3 hPa | 0 mm | - | 583 W/m² | - |
| 1777675905 | 23.89° C | 62% | 1017.3 hPa | 0 mm | - | 591 W/m² | - |
| 1777675602 | 23.89° C | 61% | 1017.6 hPa | 0 mm | - | 562 W/m² | - |
| 1777675299 | 23.89° C | 61% | 1017.5 hPa | 0 mm | - | 623 W/m² | - |
| 1777674996 | 23.33° C | 61% | 1017.8 hPa | 0 mm | - | 639 W/m² | - |
| 1777674692 | 23.33° C | 62% | 1017.8 hPa | 0 mm | - | 643 W/m² | - |
| 1777674389 | 23.33° C | 61% | 1017.9 hPa | 0 mm | - | 662 W/m² | - |
| 1777674086 | 23.33° C | 62% | 1017.9 hPa | 0 mm | - | 666 W/m² | - |
| 1777673782 | 23.33° C | 62% | 1018.3 hPa | 0 mm | - | 655 W/m² | - |
| 1777673479 | 22.78° C | 62% | 1018.4 hPa | 0 mm | - | 654 W/m² | - |
| 1777673177 | 22.78° C | 62% | 1018.3 hPa | 0 mm | - | 689 W/m² | - |
| 1777672874 | 22.78° C | 62% | 1018.4 hPa | 0 mm | - | 678 W/m² | - |
| 1777672571 | 23.33° C | 61% | 1018.5 hPa | 0 mm | - | 694 W/m² | - |
| 1777672266 | 23.89° C | 61% | 1018.6 hPa | 0 mm | - | 713 W/m² | - |
| 1777671961 | 23.33° C | 62% | 1018.5 hPa | 0 mm | - | 714 W/m² | - |
| 1777671656 | 23.33° C | 59% | 1018.6 hPa | 0 mm | - | 670 W/m² | - |
* Rain latest hour (hover to see other rain measurements)
** Current wind speed in m/s (hover to see current wind gust speed)